Year,Month,Day,Hour,Minute,Value (Times are PST for temperature in C)
2018,08,10,00,00,13.90
2018,08,10,00,01,13.90
2018,08,10,00,02,13.90
2018,08,10,00,03,14.00
2018,08,10,00,04,14.00
2018,08,10,00,05,14.00
2018,08,10,00,06,14.00
2018,08,10,00,07,14.00
2018,08,10,00,08,14.00
2018,08,10,00,09,14.00
2018,08,10,00,10,14.00
2018,08,10,00,11,14.00
2018,08,10,00,12,14.00
2018,08,10,00,13,14.00
2018,08,10,00,14,14.00
2018,08,10,00,15,14.00
2018,08,10,00,16,14.00
2018,08,10,00,17,14.10
2018,08,10,00,18,14.10
2018,08,10,00,19,14.10
2018,08,10,00,20,14.10
2018,08,10,00,21,14.10
2018,08,10,00,22,14.10
2018,08,10,00,23,14.20
2018,08,10,00,24,14.20
2018,08,10,00,25,14.20
2018,08,10,00,26,14.30
2018,08,10,00,27,14.30
2018,08,10,00,28,14.30
2018,08,10,00,29,14.30
2018,08,10,00,30,14.30
2018,08,10,00,31,14.40
2018,08,10,00,32,14.40
2018,08,10,00,33,14.40
2018,08,10,00,34,14.40
2018,08,10,00,35,14.50
2018,08,10,00,36,14.50
2018,08,10,00,37,14.50
2018,08,10,00,38,14.60
2018,08,10,00,39,14.60
2018,08,10,00,40,14.60
2018,08,10,00,41,14.60
2018,08,10,00,42,14.60
2018,08,10,00,43,14.60
2018,08,10,00,44,14.60
2018,08,10,00,45,14.60
2018,08,10,00,46,14.60
2018,08,10,00,47,14.60
2018,08,10,00,48,14.60
2018,08,10,00,49,14.70
2018,08,10,00,50,14.70
2018,08,10,00,51,14.70
2018,08,10,00,52,14.80
2018,08,10,00,53,14.80
2018,08,10,00,54,14.80
2018,08,10,00,55,14.80
2018,08,10,00,56,14.80
2018,08,10,00,57,14.80
2018,08,10,00,58,14.80
2018,08,10,00,59,14.80
2018,08,10,01,00,14.80
2018,08,10,01,01,14.80
2018,08,10,01,02,14.80
2018,08,10,01,03,14.80
2018,08,10,01,04,14.80
2018,08,10,01,05,14.80
2018,08,10,01,06,14.70
2018,08,10,01,07,14.70
2018,08,10,01,08,14.60
2018,08,10,01,09,14.60
2018,08,10,01,10,14.60
2018,08,10,01,11,14.50
2018,08,10,01,12,14.50
2018,08,10,01,13,14.40
2018,08,10,01,14,14.40
2018,08,10,01,15,14.30
2018,08,10,01,16,14.30
2018,08,10,01,17,14.20
2018,08,10,01,18,14.10
2018,08,10,01,19,14.10
2018,08,10,01,20,14.00
2018,08,10,01,21,13.90
2018,08,10,01,22,13.80
2018,08,10,01,23,13.70
2018,08,10,01,24,13.70
2018,08,10,01,25,13.60
2018,08,10,01,26,13.60
2018,08,10,01,27,13.50
2018,08,10,01,28,13.40
2018,08,10,01,29,13.40
2018,08,10,01,30,13.40
2018,08,10,01,31,13.40
2018,08,10,01,32,13.40
2018,08,10,01,33,13.40
2018,08,10,01,34,13.40
2018,08,10,01,35,13.40
2018,08,10,01,36,13.40
2018,08,10,01,37,13.40
2018,08,10,01,38,13.40
2018,08,10,01,39,13.40
2018,08,10,01,40,13.40
2018,08,10,01,41,13.40
2018,08,10,01,42,13.40
2018,08,10,01,43,13.40
2018,08,10,01,44,13.40
2018,08,10,01,45,13.50
2018,08,10,01,46,13.50
2018,08,10,01,47,13.50
2018,08,10,01,48,13.50
2018,08,10,01,49,13.50
2018,08,10,01,50,13.60
2018,08,10,01,51,13.60
2018,08,10,01,52,13.60
2018,08,10,01,53,13.60
2018,08,10,01,54,13.70
2018,08,10,01,55,13.70
2018,08,10,01,56,13.80
2018,08,10,01,57,13.80
2018,08,10,01,58,13.80
2018,08,10,01,59,13.90
2018,08,10,02,00,13.90
2018,08,10,02,01,13.90
2018,08,10,02,02,13.90
2018,08,10,02,03,13.90
2018,08,10,02,04,13.90
2018,08,10,02,05,14.00
2018,08,10,02,06,14.00
2018,08,10,02,07,14.10
2018,08,10,02,08,14.10
2018,08,10,02,09,14.10
2018,08,10,02,10,14.20
2018,08,10,02,11,14.20
2018,08,10,02,12,14.20
2018,08,10,02,13,14.20
2018,08,10,02,14,14.20
2018,08,10,02,15,14.20
2018,08,10,02,16,14.20
2018,08,10,02,17,14.20
2018,08,10,02,18,14.20
2018,08,10,02,19,14.20
2018,08,10,02,20,14.10
2018,08,10,02,21,14.10
2018,08,10,02,22,14.10
2018,08,10,02,23,14.00
2018,08,10,02,24,14.00
2018,08,10,02,25,13.90
2018,08,10,02,26,13.90
2018,08,10,02,27,13.90
2018,08,10,02,28,13.90
2018,08,10,02,29,13.90
2018,08,10,02,30,13.80
2018,08,10,02,31,13.80
2018,08,10,02,32,13.80
2018,08,10,02,33,13.80
2018,08,10,02,34,13.80
2018,08,10,02,35,13.80
2018,08,10,02,36,13.80
2018,08,10,02,37,13.90
2018,08,10,02,38,13.90
2018,08,10,02,39,13.90
2018,08,10,02,40,13.90
2018,08,10,02,41,13.90
2018,08,10,02,42,13.90
2018,08,10,02,43,13.90
2018,08,10,02,44,13.90
2018,08,10,02,45,13.90
2018,08,10,02,46,13.90
2018,08,10,02,47,13.80
2018,08,10,02,48,13.80
2018,08,10,02,49,13.80
2018,08,10,02,50,13.80
2018,08,10,02,51,13.80
2018,08,10,02,52,13.80
2018,08,10,02,53,13.80
2018,08,10,02,54,13.80
2018,08,10,02,55,13.80
2018,08,10,02,56,13.90
2018,08,10,02,57,13.90
2018,08,10,02,58,13.90
2018,08,10,02,59,13.90
2018,08,10,03,00,13.90
2018,08,10,03,01,13.90
2018,08,10,03,02,13.90
2018,08,10,03,03,13.90
2018,08,10,03,04,13.90
2018,08,10,03,05,13.90
2018,08,10,03,06,13.90
2018,08,10,03,07,14.00
2018,08,10,03,08,14.00
2018,08,10,03,09,14.10
2018,08,10,03,10,14.20
2018,08,10,03,11,14.20
2018,08,10,03,12,14.30
2018,08,10,03,13,14.30
2018,08,10,03,14,14.30
2018,08,10,03,15,14.40
2018,08,10,03,16,14.40
2018,08,10,03,17,14.50
2018,08,10,03,18,14.50
2018,08,10,03,19,14.60
2018,08,10,03,20,14.60
2018,08,10,03,21,14.60
2018,08,10,03,22,14.60
2018,08,10,03,23,14.60
2018,08,10,03,24,14.60
2018,08,10,03,25,14.60
2018,08,10,03,26,14.60
2018,08,10,03,27,14.60
2018,08,10,03,28,14.60
2018,08,10,03,29,14.60
2018,08,10,03,30,14.60
2018,08,10,03,31,14.60
2018,08,10,03,32,14.60
2018,08,10,03,33,14.60
2018,08,10,03,34,14.60
2018,08,10,03,35,14.60
2018,08,10,03,36,14.60
2018,08,10,03,37,14.60
2018,08,10,03,38,14.60
2018,08,10,03,39,14.60
2018,08,10,03,40,14.60
2018,08,10,03,41,14.60
2018,08,10,03,42,14.60
2018,08,10,03,43,14.60
2018,08,10,03,44,14.60
2018,08,10,03,45,14.60
2018,08,10,03,46,14.60
2018,08,10,03,47,14.60
2018,08,10,03,48,14.60
2018,08,10,03,49,14.60
2018,08,10,03,50,14.60
2018,08,10,03,51,14.60
2018,08,10,03,52,14.60
2018,08,10,03,53,14.60
2018,08,10,03,54,14.70
2018,08,10,03,55,14.70
2018,08,10,03,56,14.70
2018,08,10,03,57,14.70
2018,08,10,03,58,14.70
2018,08,10,03,59,14.80
2018,08,10,04,00,14.80
2018,08,10,04,01,14.80
2018,08,10,04,02,14.90
2018,08,10,04,03,14.90
2018,08,10,04,04,14.90
2018,08,10,04,05,14.90
2018,08,10,04,06,14.90
2018,08,10,04,07,15.00
2018,08,10,04,08,15.00
2018,08,10,04,09,15.10
2018,08,10,04,10,15.10
2018,08,10,04,11,15.10
2018,08,10,04,12,15.10
2018,08,10,04,13,15.10
2018,08,10,04,14,15.10
2018,08,10,04,15,15.10
2018,08,10,04,16,15.10
2018,08,10,04,17,15.10
2018,08,10,04,18,15.10
2018,08,10,04,19,15.10
2018,08,10,04,20,15.10
2018,08,10,04,21,15.10
2018,08,10,04,22,15.10
2018,08,10,04,23,15.10
2018,08,10,04,24,15.10
2018,08,10,04,25,15.00
2018,08,10,04,26,15.00
2018,08,10,04,27,15.00
2018,08,10,04,28,15.00
2018,08,10,04,29,15.00
2018,08,10,04,30,14.90
2018,08,10,04,31,14.90
2018,08,10,04,32,14.90
2018,08,10,04,33,14.90
2018,08,10,04,34,14.90
2018,08,10,04,35,14.90
2018,08,10,04,36,14.90
2018,08,10,04,37,14.90
2018,08,10,04,38,14.90
2018,08,10,04,39,14.90
2018,08,10,04,40,14.90
2018,08,10,04,41,14.90
2018,08,10,04,42,14.90
2018,08,10,04,43,14.90
2018,08,10,04,44,14.90
2018,08,10,04,45,14.90
2018,08,10,04,46,14.90
2018,08,10,04,47,14.90
2018,08,10,04,48,15.00
2018,08,10,04,49,15.00
2018,08,10,04,50,15.10
2018,08,10,04,51,15.10
2018,08,10,04,52,15.10
2018,08,10,04,53,15.10
2018,08,10,04,54,15.20
2018,08,10,04,55,15.20
2018,08,10,04,56,15.20
2018,08,10,04,57,15.20
2018,08,10,04,58,15.20
2018,08,10,04,59,15.20
2018,08,10,05,00,15.30
2018,08,10,05,01,15.30
2018,08,10,05,02,15.30
2018,08,10,05,03,15.30
2018,08,10,05,04,15.30
2018,08,10,05,05,15.30
2018,08,10,05,06,15.30
2018,08,10,05,07,15.30
2018,08,10,05,08,15.30
2018,08,10,05,09,15.10
2018,08,10,05,10,15.00
2018,08,10,05,11,14.90
2018,08,10,05,12,14.80
2018,08,10,05,13,14.70
2018,08,10,05,14,14.70
2018,08,10,05,15,14.60
2018,08,10,05,16,14.60
2018,08,10,05,17,14.60
2018,08,10,05,18,14.50
2018,08,10,05,19,14.50
2018,08,10,05,20,14.40
2018,08,10,05,21,14.40
2018,08,10,05,22,14.30
2018,08,10,05,23,14.30
2018,08,10,05,24,14.20
2018,08,10,05,25,14.20
2018,08,10,05,26,14.10
2018,08,10,05,27,14.10
2018,08,10,05,28,14.00
2018,08,10,05,29,14.00
2018,08,10,05,30,14.00
2018,08,10,05,31,13.90
2018,08,10,05,32,13.90
2018,08,10,05,33,13.90
2018,08,10,05,34,13.90
2018,08,10,05,35,13.90
2018,08,10,05,36,13.90
2018,08,10,05,37,13.90
2018,08,10,05,38,13.90
2018,08,10,05,39,13.80
2018,08,10,05,40,13.80
2018,08,10,05,41,13.80
2018,08,10,05,42,13.70
2018,08,10,05,43,13.70
2018,08,10,05,44,13.70
2018,08,10,05,45,13.60
2018,08,10,05,46,13.60
2018,08,10,05,47,13.60
2018,08,10,05,48,13.60
2018,08,10,05,49,13.60
2018,08,10,05,50,13.60
2018,08,10,05,51,13.60
2018,08,10,05,52,13.60
2018,08,10,05,53,13.60
2018,08,10,05,54,13.60
2018,08,10,05,55,13.60
2018,08,10,05,56,13.60
2018,08,10,05,57,13.60
2018,08,10,05,58,13.70
2018,08,10,05,59,13.70
2018,08,10,06,00,13.70
2018,08,10,06,01,13.70
2018,08,10,06,02,13.70
2018,08,10,06,03,13.80
2018,08,10,06,04,13.80
2018,08,10,06,05,13.70
2018,08,10,06,06,13.70
2018,08,10,06,07,13.70
2018,08,10,06,08,13.60
2018,08,10,06,09,13.60
2018,08,10,06,10,13.60
2018,08,10,06,11,13.60
2018,08,10,06,12,13.60
2018,08,10,06,13,13.50
2018,08,10,06,14,13.50
2018,08,10,06,15,13.50
2018,08,10,06,16,13.40
2018,08,10,06,17,13.40
2018,08,10,06,18,13.30
2018,08,10,06,19,13.30
2018,08,10,06,20,13.20
2018,08,10,06,21,13.20
2018,08,10,06,22,13.20
2018,08,10,06,23,13.10
2018,08,10,06,24,13.10
2018,08,10,06,25,13.10
2018,08,10,06,26,13.10
2018,08,10,06,27,13.10
2018,08,10,06,28,13.00
2018,08,10,06,29,13.00
2018,08,10,06,30,12.90
2018,08,10,06,31,12.90
2018,08,10,06,32,12.90
2018,08,10,06,33,12.80
2018,08,10,06,34,12.80
2018,08,10,06,35,12.80
2018,08,10,06,36,12.80
2018,08,10,06,37,12.80
2018,08,10,06,38,12.80
2018,08,10,06,39,12.90
2018,08,10,06,40,12.90
2018,08,10,06,41,12.90
2018,08,10,06,42,13.00
2018,08,10,06,43,13.00
2018,08,10,06,44,13.10
2018,08,10,06,45,13.10
2018,08,10,06,46,13.20
2018,08,10,06,47,13.20
2018,08,10,06,48,13.30
2018,08,10,06,49,13.30
2018,08,10,06,50,13.40
2018,08,10,06,51,13.50
2018,08,10,06,52,13.50
2018,08,10,06,53,13.60
2018,08,10,06,54,13.70
2018,08,10,06,55,13.70
2018,08,10,06,56,13.80
2018,08,10,06,57,13.80
2018,08,10,06,58,13.80
2018,08,10,06,59,13.80
2018,08,10,07,00,13.80
2018,08,10,07,01,13.90
2018,08,10,07,02,13.90
2018,08,10,07,03,14.00
2018,08,10,07,04,14.00
2018,08,10,07,05,14.10
2018,08,10,07,06,14.10
2018,08,10,07,07,14.20
2018,08,10,07,08,14.30
2018,08,10,07,09,14.30
2018,08,10,07,10,14.40
2018,08,10,07,11,14.50
2018,08,10,07,12,14.60
2018,08,10,07,13,14.60
2018,08,10,07,14,14.70
2018,08,10,07,15,14.70
2018,08,10,07,16,14.80
2018,08,10,07,17,14.90
2018,08,10,07,18,15.00
2018,08,10,07,19,15.10
2018,08,10,07,20,15.10
2018,08,10,07,21,15.20
2018,08,10,07,22,15.30
2018,08,10,07,23,15.30
2018,08,10,07,24,15.30
2018,08,10,07,25,15.40
2018,08,10,07,26,15.40
2018,08,10,07,27,15.50
2018,08,10,07,28,15.60
2018,08,10,07,29,15.70
2018,08,10,07,30,15.80
2018,08,10,07,31,15.80
2018,08,10,07,32,16.00
2018,08,10,07,33,16.10
2018,08,10,07,34,16.20
2018,08,10,07,35,16.40
2018,08,10,07,36,16.50
2018,08,10,07,37,16.50
2018,08,10,07,38,16.60
2018,08,10,07,39,16.70
2018,08,10,07,40,16.70
2018,08,10,07,41,16.70
2018,08,10,07,42,16.70
2018,08,10,07,43,16.70
2018,08,10,07,44,16.70
2018,08,10,07,45,16.70
2018,08,10,07,46,16.70
2018,08,10,07,47,16.70
2018,08,10,07,48,16.80
2018,08,10,07,49,16.80
2018,08,10,07,50,16.80
2018,08,10,07,51,16.80
2018,08,10,07,52,16.80
2018,08,10,07,53,16.80
2018,08,10,07,54,16.90
2018,08,10,07,55,16.90
2018,08,10,07,56,16.90
2018,08,10,07,57,17.00
2018,08,10,07,58,17.00
2018,08,10,07,59,17.10
2018,08,10,08,00,17.20
2018,08,10,08,01,17.20
2018,08,10,08,02,17.30
2018,08,10,08,03,17.40
2018,08,10,08,04,17.40
2018,08,10,08,05,17.50
2018,08,10,08,06,17.60
2018,08,10,08,07,17.70
2018,08,10,08,08,17.70
2018,08,10,08,09,17.80
2018,08,10,08,10,17.90
2018,08,10,08,11,17.90
2018,08,10,08,12,18.00
2018,08,10,08,13,18.10
2018,08,10,08,14,18.20
2018,08,10,08,15,18.30
2018,08,10,08,16,18.40
2018,08,10,08,17,18.40
2018,08,10,08,18,18.50
2018,08,10,08,19,18.60
2018,08,10,08,20,18.70
2018,08,10,08,21,18.70
2018,08,10,08,22,18.80
2018,08,10,08,23,18.90
2018,08,10,08,24,18.90
2018,08,10,08,25,19.00
2018,08,10,08,26,19.10
2018,08,10,08,27,19.20
2018,08,10,08,28,19.20
2018,08,10,08,29,19.30
2018,08,10,08,30,19.40
2018,08,10,08,31,19.50
2018,08,10,08,32,19.60
2018,08,10,08,33,19.60
2018,08,10,08,34,19.70
2018,08,10,08,35,19.80
2018,08,10,08,36,19.90
2018,08,10,08,37,20.00
2018,08,10,08,38,20.10
2018,08,10,08,39,20.20
2018,08,10,08,40,20.30
2018,08,10,08,41,20.40
2018,08,10,08,42,20.50
2018,08,10,08,43,20.60
2018,08,10,08,44,20.70
2018,08,10,08,45,20.80
2018,08,10,08,46,20.90
2018,08,10,08,47,21.00
2018,08,10,08,48,21.10
2018,08,10,08,49,21.20
2018,08,10,08,50,21.30
2018,08,10,08,51,21.30
2018,08,10,08,52,21.50
2018,08,10,08,53,21.60
2018,08,10,08,54,21.70
2018,08,10,08,55,21.80
2018,08,10,08,56,21.90
2018,08,10,08,57,22.00
2018,08,10,08,58,22.10
2018,08,10,08,59,22.10
2018,08,10,09,00,22.20
2018,08,10,09,01,22.30
2018,08,10,09,02,22.40
2018,08,10,09,03,22.50
2018,08,10,09,04,22.60
2018,08,10,09,05,22.70
2018,08,10,09,06,22.70
2018,08,10,09,07,22.80
2018,08,10,09,08,22.90
2018,08,10,09,09,23.00
2018,08,10,09,10,23.10
2018,08,10,09,11,23.20
2018,08,10,09,12,23.20
2018,08,10,09,13,23.30
2018,08,10,09,14,23.30
2018,08,10,09,15,23.30
2018,08,10,09,16,23.30
2018,08,10,09,17,23.30
2018,08,10,09,18,23.30
2018,08,10,09,19,23.40
2018,08,10,09,20,23.40
2018,08,10,09,21,23.50
2018,08,10,09,22,23.50
2018,08,10,09,23,23.50
2018,08,10,09,24,23.50
2018,08,10,09,25,23.50
2018,08,10,09,26,23.50
2018,08,10,09,27,23.50
2018,08,10,09,28,23.60
2018,08,10,09,29,23.60
2018,08,10,09,30,23.50
2018,08,10,09,31,23.30
2018,08,10,09,32,23.10
2018,08,10,09,33,22.90
2018,08,10,09,34,22.70
2018,08,10,09,35,22.50
2018,08,10,09,36,22.30
2018,08,10,09,37,22.10
2018,08,10,09,38,22.00
2018,08,10,09,39,21.90
2018,08,10,09,40,21.80
2018,08,10,09,41,21.80
2018,08,10,09,42,21.80
2018,08,10,09,43,21.80
2018,08,10,09,44,21.90
2018,08,10,09,45,22.00
2018,08,10,09,46,22.00
2018,08,10,09,47,22.10
2018,08,10,09,48,22.20
2018,08,10,09,49,22.30
2018,08,10,09,50,22.40
2018,08,10,09,51,22.50
2018,08,10,09,52,22.50
2018,08,10,09,53,22.60
2018,08,10,09,54,22.70
2018,08,10,09,55,22.80
2018,08,10,09,56,22.90
2018,08,10,09,57,23.00
2018,08,10,09,58,23.10
2018,08,10,09,59,23.20
2018,08,10,10,00,23.30
2018,08,10,10,01,23.40
2018,08,10,10,02,23.50
2018,08,10,10,03,23.60
2018,08,10,10,04,23.60
2018,08,10,10,05,23.60
2018,08,10,10,06,23.70
2018,08,10,10,07,23.70
2018,08,10,10,08,23.70
2018,08,10,10,09,23.80
2018,08,10,10,10,23.90
2018,08,10,10,11,24.00
2018,08,10,10,12,24.10
2018,08,10,10,13,24.20
2018,08,10,10,14,24.30
2018,08,10,10,15,24.50
2018,08,10,10,16,24.60
2018,08,10,10,17,24.70
2018,08,10,10,18,24.70
2018,08,10,10,19,24.80
2018,08,10,10,20,24.90
2018,08,10,10,21,24.90
2018,08,10,10,22,25.00
2018,08,10,10,23,25.10
2018,08,10,10,24,25.20
2018,08,10,10,25,25.20
2018,08,10,10,26,25.30
2018,08,10,10,27,25.30
2018,08,10,10,28,25.30
2018,08,10,10,29,25.40
2018,08,10,10,30,25.40
2018,08,10,10,31,25.40
2018,08,10,10,32,25.30
2018,08,10,10,33,25.30
2018,08,10,10,34,25.20
2018,08,10,10,35,25.20
2018,08,10,10,36,25.10
2018,08,10,10,37,25.10
2018,08,10,10,38,25.10
2018,08,10,10,39,25.00
2018,08,10,10,40,25.00
2018,08,10,10,41,25.00
2018,08,10,10,42,25.10
2018,08,10,10,43,25.00
2018,08,10,10,44,25.00
2018,08,10,10,45,24.90
2018,08,10,10,46,24.90
2018,08,10,10,47,25.00
2018,08,10,10,48,25.00
2018,08,10,10,49,24.90
2018,08,10,10,50,24.90
2018,08,10,10,51,25.00
2018,08,10,10,52,25.00
2018,08,10,10,53,24.90
2018,08,10,10,54,24.90
2018,08,10,10,55,24.90
2018,08,10,10,56,24.90
2018,08,10,10,57,25.00
2018,08,10,10,58,25.10
2018,08,10,10,59,25.20
2018,08,10,11,00,25.20
2018,08,10,11,01,25.20
2018,08,10,11,02,25.20
2018,08,10,11,03,25.20
2018,08,10,11,04,25.20
2018,08,10,11,05,25.10
2018,08,10,11,06,25.10
2018,08,10,11,07,25.10
2018,08,10,11,08,25.10
2018,08,10,11,09,25.10
2018,08,10,11,10,25.20
2018,08,10,11,11,25.20
2018,08,10,11,12,25.20
2018,08,10,11,13,25.30
2018,08,10,11,14,25.40
2018,08,10,11,15,25.40
2018,08,10,11,16,25.40
2018,08,10,11,17,25.40
2018,08,10,11,18,25.50
2018,08,10,11,19,25.50
2018,08,10,11,20,25.40
2018,08,10,11,21,25.50
2018,08,10,11,22,25.50
2018,08,10,11,23,25.50
2018,08,10,11,24,25.60
2018,08,10,11,25,25.70
2018,08,10,11,26,25.70
2018,08,10,11,27,25.80
2018,08,10,11,28,25.80
2018,08,10,11,29,25.70
2018,08,10,11,30,25.70
2018,08,10,11,31,25.70
2018,08,10,11,32,25.70
2018,08,10,11,33,25.70
2018,08,10,11,34,25.80
2018,08,10,11,35,25.80
2018,08,10,11,36,25.90
2018,08,10,11,37,26.00
2018,08,10,11,38,26.10
2018,08,10,11,39,26.10
2018,08,10,11,40,26.20
2018,08,10,11,41,26.10
2018,08,10,11,42,26.10
2018,08,10,11,43,26.00
2018,08,10,11,44,25.90
2018,08,10,11,45,26.00
2018,08,10,11,46,26.00
2018,08,10,11,47,26.00
2018,08,10,11,48,26.00
2018,08,10,11,49,26.00
2018,08,10,11,50,26.00
2018,08,10,11,51,26.00
2018,08,10,11,52,26.00
2018,08,10,11,53,26.10
2018,08,10,11,54,26.10
2018,08,10,11,55,26.20
2018,08,10,11,56,26.20
2018,08,10,11,57,26.20
2018,08,10,11,58,26.20
2018,08,10,11,59,26.20
2018,08,10,12,00,26.20
2018,08,10,12,01,26.30
2018,08,10,12,02,26.30
2018,08,10,12,03,26.30
2018,08,10,12,04,26.20
2018,08,10,12,05,26.10
2018,08,10,12,06,26.10
2018,08,10,12,07,26.20
2018,08,10,12,08,26.30
2018,08,10,12,09,26.30
2018,08,10,12,10,26.20
2018,08,10,12,11,26.20
2018,08,10,12,12,26.10
2018,08,10,12,13,26.10
2018,08,10,12,14,26.10
2018,08,10,12,15,26.10
2018,08,10,12,16,26.10
2018,08,10,12,17,26.20
2018,08,10,12,18,26.20
2018,08,10,12,19,26.10
2018,08,10,12,20,26.10
2018,08,10,12,21,26.10
2018,08,10,12,22,26.00
2018,08,10,12,23,26.00
2018,08,10,12,24,26.00
2018,08,10,12,25,26.00
2018,08,10,12,26,26.10
2018,08,10,12,27,26.10
2018,08,10,12,28,26.20
2018,08,10,12,29,26.20
2018,08,10,12,30,26.20
2018,08,10,12,31,26.30
2018,08,10,12,32,26.30
2018,08,10,12,33,26.40
2018,08,10,12,34,26.40
2018,08,10,12,35,26.50
2018,08,10,12,36,26.50
2018,08,10,12,37,26.60
2018,08,10,12,38,26.70
2018,08,10,12,39,26.70
2018,08,10,12,40,26.70
2018,08,10,12,41,26.60
2018,08,10,12,42,26.60
2018,08,10,12,43,26.60
2018,08,10,12,44,26.60
2018,08,10,12,45,26.60
2018,08,10,12,46,26.60
2018,08,10,12,47,26.70
2018,08,10,12,48,26.70
2018,08,10,12,49,26.70
2018,08,10,12,50,26.80
2018,08,10,12,51,26.80
2018,08,10,12,52,26.90
2018,08,10,12,53,26.90
2018,08,10,12,54,26.80
2018,08,10,12,55,26.80
2018,08,10,12,56,26.80
2018,08,10,12,57,26.80
2018,08,10,12,58,26.80
2018,08,10,12,59,26.70
2018,08,10,13,00,26.60
2018,08,10,13,01,26.60
2018,08,10,13,02,26.60
2018,08,10,13,03,26.60
2018,08,10,13,04,26.70
2018,08,10,13,05,26.80
2018,08,10,13,06,26.90
2018,08,10,13,07,27.00
2018,08,10,13,08,26.90
2018,08,10,13,09,26.90
2018,08,10,13,10,26.80
2018,08,10,13,11,26.80
2018,08,10,13,12,26.70
2018,08,10,13,13,26.70
2018,08,10,13,14,26.70
2018,08,10,13,15,26.70
2018,08,10,13,16,26.70
2018,08,10,13,17,26.80
2018,08,10,13,18,26.80
2018,08,10,13,19,26.70
2018,08,10,13,20,26.70
2018,08,10,13,21,26.70
2018,08,10,13,22,26.70
2018,08,10,13,23,26.60
2018,08,10,13,24,26.60
2018,08,10,13,25,26.50
2018,08,10,13,26,26.50
2018,08,10,13,27,26.50
2018,08,10,13,28,26.60
2018,08,10,13,29,26.50
2018,08,10,13,30,26.50
2018,08,10,13,31,26.50
2018,08,10,13,32,26.50
2018,08,10,13,33,26.40
2018,08,10,13,34,26.50
2018,08,10,13,35,26.60
2018,08,10,13,36,26.80
2018,08,10,13,37,26.80
2018,08,10,13,38,26.90
2018,08,10,13,39,26.90
2018,08,10,13,40,26.80
2018,08,10,13,41,26.80
2018,08,10,13,42,26.70
2018,08,10,13,43,26.60
2018,08,10,13,44,26.60
2018,08,10,13,45,26.70
2018,08,10,13,46,26.70
2018,08,10,13,47,26.80
2018,08,10,13,48,26.70
2018,08,10,13,49,26.70
2018,08,10,13,50,26.70
2018,08,10,13,51,26.70
2018,08,10,13,52,26.70
2018,08,10,13,53,26.70
2018,08,10,13,54,26.60
2018,08,10,13,55,26.60
2018,08,10,13,56,26.50
2018,08,10,13,57,26.40
2018,08,10,13,58,26.50
2018,08,10,13,59,26.60
2018,08,10,14,00,26.60
2018,08,10,14,01,26.70
2018,08,10,14,02,26.70
2018,08,10,14,03,26.60
2018,08,10,14,04,26.60
2018,08,10,14,05,26.60
2018,08,10,14,06,26.60
2018,08,10,14,07,26.60
2018,08,10,14,08,26.60
2018,08,10,14,09,26.50
2018,08,10,14,10,26.50
2018,08,10,14,11,26.50
2018,08,10,14,12,26.50
2018,08,10,14,13,26.50
2018,08,10,14,14,26.60
2018,08,10,14,15,26.70
2018,08,10,14,16,26.80
2018,08,10,14,17,26.90
2018,08,10,14,18,26.90
2018,08,10,14,19,26.90
2018,08,10,14,20,26.90
2018,08,10,14,21,26.90
2018,08,10,14,22,27.00
2018,08,10,14,23,27.10
2018,08,10,14,24,27.10
2018,08,10,14,25,27.10
2018,08,10,14,26,27.10
2018,08,10,14,27,27.20
2018,08,10,14,28,27.20
2018,08,10,14,29,27.30
2018,08,10,14,30,27.30
2018,08,10,14,31,27.30
2018,08,10,14,32,27.40
2018,08,10,14,33,27.40
2018,08,10,14,34,27.40
2018,08,10,14,35,27.30
2018,08,10,14,36,27.30
2018,08,10,14,37,27.30
2018,08,10,14,38,27.40
2018,08,10,14,39,27.50
2018,08,10,14,40,27.60
2018,08,10,14,41,27.60
2018,08,10,14,42,27.70
2018,08,10,14,43,27.70
2018,08,10,14,44,27.80
2018,08,10,14,45,27.80
2018,08,10,14,46,27.90
2018,08,10,14,47,28.00
2018,08,10,14,48,28.10
2018,08,10,14,49,28.10
2018,08,10,14,50,28.20
2018,08,10,14,51,28.30
2018,08,10,14,52,28.40
2018,08,10,14,53,28.50
2018,08,10,14,54,28.40
2018,08,10,14,55,28.40
2018,08,10,14,56,28.40
2018,08,10,14,57,28.30
2018,08,10,14,58,28.30
2018,08,10,14,59,28.30
2018,08,10,15,00,28.30
2018,08,10,15,01,28.30
2018,08,10,15,02,28.30
2018,08,10,15,03,28.20
2018,08,10,15,04,28.20
2018,08,10,15,05,28.10
2018,08,10,15,06,28.00
2018,08,10,15,07,27.90
2018,08,10,15,08,27.80
2018,08,10,15,09,27.80
2018,08,10,15,10,27.80
2018,08,10,15,11,27.80
2018,08,10,15,12,27.80
2018,08,10,15,13,27.80
2018,08,10,15,14,27.80
2018,08,10,15,15,27.90
2018,08,10,15,16,27.80
2018,08,10,15,17,27.90
2018,08,10,15,18,27.90
2018,08,10,15,19,28.00
2018,08,10,15,20,28.00
2018,08,10,15,21,28.00
2018,08,10,15,22,28.00
2018,08,10,15,23,27.90
2018,08,10,15,24,27.90
2018,08,10,15,25,27.90
2018,08,10,15,26,27.90
2018,08,10,15,27,27.90
2018,08,10,15,28,27.90
2018,08,10,15,29,27.90
2018,08,10,15,30,27.90
2018,08,10,15,31,27.80
2018,08,10,15,32,27.90
2018,08,10,15,33,27.90
2018,08,10,15,34,28.00
2018,08,10,15,35,28.00
2018,08,10,15,36,28.00
2018,08,10,15,37,27.90
2018,08,10,15,38,27.90
2018,08,10,15,39,27.90
2018,08,10,15,40,27.90
2018,08,10,15,41,28.00
2018,08,10,15,42,27.90
2018,08,10,15,43,27.90
2018,08,10,15,44,27.80
2018,08,10,15,45,27.70
2018,08,10,15,46,27.70
2018,08,10,15,47,27.70
2018,08,10,15,48,27.70
2018,08,10,15,49,27.70
2018,08,10,15,50,27.70
2018,08,10,15,51,27.70
2018,08,10,15,52,27.70
2018,08,10,15,53,27.70
2018,08,10,15,54,27.70
2018,08,10,15,55,27.80
2018,08,10,15,56,27.80
2018,08,10,15,57,27.90
2018,08,10,15,58,28.00
2018,08,10,15,59,28.20
2018,08,10,16,00,28.30
2018,08,10,16,01,28.40
2018,08,10,16,02,28.50
2018,08,10,16,03,28.60
2018,08,10,16,04,28.60
2018,08,10,16,05,28.60
2018,08,10,16,06,28.50
2018,08,10,16,07,28.40
2018,08,10,16,08,28.40
2018,08,10,16,09,28.50
2018,08,10,16,10,28.50
2018,08,10,16,11,28.60
2018,08,10,16,12,28.70
2018,08,10,16,13,28.70
2018,08,10,16,14,28.80
2018,08,10,16,15,29.00
2018,08,10,16,16,29.10
2018,08,10,16,17,29.20
2018,08,10,16,18,29.30
2018,08,10,16,19,29.30
2018,08,10,16,20,29.40
2018,08,10,16,21,29.50
2018,08,10,16,22,29.60
2018,08,10,16,23,29.70
2018,08,10,16,24,29.80
2018,08,10,16,25,29.80
2018,08,10,16,26,29.90
2018,08,10,16,27,29.90
2018,08,10,16,28,30.00
2018,08,10,16,29,30.10
2018,08,10,16,30,30.20
2018,08,10,16,31,30.30
2018,08,10,16,32,30.40
2018,08,10,16,33,30.50
2018,08,10,16,34,30.50
2018,08,10,16,35,30.60
2018,08,10,16,36,30.70
2018,08,10,16,37,30.70
2018,08,10,16,38,30.70
2018,08,10,16,39,30.80
2018,08,10,16,40,30.80
2018,08,10,16,41,30.90
2018,08,10,16,42,30.90
2018,08,10,16,43,30.90
2018,08,10,16,44,31.00
2018,08,10,16,45,31.10
2018,08,10,16,46,31.10
2018,08,10,16,47,31.20
2018,08,10,16,48,31.20
2018,08,10,16,49,31.30
2018,08,10,16,50,31.20
2018,08,10,16,51,31.20
2018,08,10,16,52,31.20
2018,08,10,16,53,31.10
2018,08,10,16,54,31.10
2018,08,10,16,55,31.00
2018,08,10,16,56,30.90
2018,08,10,16,57,30.90
2018,08,10,16,58,30.80
2018,08,10,16,59,30.70
2018,08,10,17,00,30.70
2018,08,10,17,01,30.70
2018,08,10,17,02,30.70
2018,08,10,17,03,30.60
2018,08,10,17,04,30.60
2018,08,10,17,05,30.60
2018,08,10,17,06,30.50
2018,08,10,17,07,30.40
2018,08,10,17,08,30.40
2018,08,10,17,09,30.30
2018,08,10,17,10,30.30
2018,08,10,17,11,30.30
2018,08,10,17,12,30.20
2018,08,10,17,13,30.20
2018,08,10,17,14,30.10
2018,08,10,17,15,30.10
2018,08,10,17,16,30.00
2018,08,10,17,17,29.90
2018,08,10,17,18,29.90
2018,08,10,17,19,29.80